[[{"header":{"parameterUnit":"m.s-1","parameterCategory":2,"la1":30.2991,"la2":30.254,"lo1":-89.0895,"lo2":-89.0444,"dy":0.0017,"dx":0.0017,"nx":28,"ny":28,"refTime":"2024-06-17T09:00:00:Z","depth":"0","parameterNumber":2,"parameterNumberName":"U-component_of_CURRENTS"},"data":[0,0,0,0,0,0,0,0,0,0,0,0,0,0,0,0,0,0,0,0,0,0,0,0,0,0,0,0,0,0,0,0,0,0,0,0,0,0,0,0,0,0,0,0,0,0,0,0,0,0,0,0,0,0,0,0,0,0,-0.2337,-0.2338,0,-0.2352,-0.2351,-0.2351,-0.2327,-0.2326,-0.2326,-0.2325,-0.2259,-0.2257,-0.2256,0,0,0,0,0,0,0,0,0,0,0,0,0,-0.2263,-0.2265,-0.2337,-0.2338,-0.2338,-0.2352,-0.2351,-0.2351,-0.2327,-0.2326,-0.2325,-0.2325,-0.2259,-0.2258,-0.2256,0,0,0,0,0,0,0,0,0,0,0,0,0,-0.2285,-0.2265,-0.2337,-0.233,-0.233,-0.2352,-0.2351,-0.2351,-0.2327,-0.2326,-0.2325,-0.2325,-0.226,-0.2258,-0.2256,-0.2258,0,0,-0.225,-0.2249,0,0,0,0,0,0,0,0,-0.2283,-0.2287,-0.2331,-0.2331,-0.2331,-0.234,-0.2301,-0.2317,-0.2327,-0.2324,-0.2325,-0.2324,-0.2282,-0.2278,-0.2277,-0.2255,-0.2252,-0.225,-0.2248,-0.2247,-0.2247,0,0,0,0,0,0,0,-0.2282,-0.2286,-0.2339,-0.2332,-0.2332,-0.2319,-0.2321,-0.2304,-0.2302,-0.2324,-0.2323,-0.2332,-0.228,-0.228,-0.2276,-0.2251,-0.225,-0.2248,-0.2247,-0.2246,-0.2234,-0.2235,0,0,0,0,0,0,-0.2291,-0.2285,-0.2338,-0.234,-0.2309,-0.2321,-0.2323,-0.2335,-0.2304,-0.23,-0.2332,-0.233,-0.2283,-0.2278,-0.2273,-0.2291,-0.2248,-0.2246,-0.2244,-0.2233,-0.2234,-0.2235,0,0,0,0,0,0,-0.2289,-0.2296,-0.2338,-0.2315,-0.232,-0.2324,-0.2336,-0.2335,-0.2335,-0.2312,-0.2305,-0.2334,-0.2283,-0.2276,-0.2267,-0.2288,-0.2245,-0.2243,-0.2232,-0.2234,-0.2235,-0.2316,0,0,0,0,0,0,-0.2287,-0.2295,-0.2301,-0.2316,-0.2322,-0.2359,-0.2337,-0.2336,-0.2343,-0.2341,-0.2311,-0.2304,-0.2281,-0.227,-0.2265,-0.2284,-0.2241,-0.2231,-0.2233,-0.2234,-0.2312,-0.232,-0.2327,0,0,0,0,0,-0.2284,-0.2302,-0.2301,-0.2307,-0.2332,-0.236,-0.2362,-0.2358,-0.2344,-0.2353,-0.2332,-0.2305,-0.2277,-0.227,-0.2263,-0.2282,-0.223,-0.2232,-0.2234,-0.2309,-0.2319,-0.2327,0,0,0,0,0,0,-0.2273,-0.2302,-0.2301,-0.2326,-0.2345,-0.2357,-0.2365,-0.2363,-0.2354,-0.2346,-0.2316,-0.2309,-0.2309,-0.2284,-0.2277,-0.2283,-0.2249,-0.225,-0.2308,-0.2317,-0.2324,-0.2325,-0.224,0,0,0,0,0,-0.2275,-0.2294,-0.2319,-0.2338,-0.2349,-0.2356,-0.2364,-0.2366,-0.2365,-0.2361,-0.2342,-0.2321,-0.2313,-0.2306,-0.229,-0.2293,-0.2281,-0.2301,-0.2308,-0.2315,-0.2311,-0.2313,-0.232,-0.2242,-0.2242,-0.2242,0,0,-0.2276,-0.2294,-0.2304,-0.2336,-0.2346,-0.2377,-0.2358,-0.2378,-0.2399,-0.2354,-0.2364,-0.2344,-0.2319,-0.2326,-0.2324,-0.2308,-0.2337,-0.2317,-0.2323,-0.2315,-0.2315,-0.2323,-0.233,-0.2243,-0.2243,-0.2243,0,0,-0.2297,-0.2304,-0.233,-0.2352,-0.2379,-0.2388,-0.2397,-0.2414,-0.2414,-0.2427,-0.2402,-0.2395,-0.2379,-0.2371,-0.2364,-0.24,-0.2374,-0.2395,-0.2433,-0.2435,-0.2442,-0.2447,-0.247,-0.2477,-0.24,-0.24,-0.24,0,-0.2295,-0.2333,-0.2341,-0.2377,-0.2399,-0.2398,-0.2434,-0.2443,-0.2453,-0.2458,-0.2439,-0.2429,-0.2403,-0.242,-0.2429,-0.2416,-0.2418,-0.2405,-0.2446,-0.2451,-0.2455,-0.2476,-0.2483,-0.2404,-0.2403,-0.2403,-0.2403,0,-0.2337,-0.2371,-0.2389,-0.2434,-0.2457,-0.2486,-0.2508,-0.2522,-0.2518,-0.2524,-0.2534,-0.2506,-0.2496,-0.2494,-0.2469,-0.2491,-0.2485,-0.2456,-0.2426,-0.2468,-0.2488,-0.2493,-0.241,-0.2408,-0.2407,-0.2406,0,0,-0.2325,-0.2404,-0.241,-0.244,-0.2488,-0.2511,-0.2553,-0.2587,-0.2608,-0.2607,-0.2631,-0.2615,-0.2589,-0.2578,-0.2552,-0.2551,-0.2586,-0.2517,-0.2515,-0.2545,-0.2611,-0.2643,-0.2652,-0.2566,-0.2566,-0.2567,-0.2625,0,-0.2353,-0.2426,-0.2461,-0.2526,-0.2562,-0.2586,-0.2626,-0.2654,-0.2663,-0.2683,-0.2665,-0.2667,-0.2627,-0.2617,-0.2615,-0.2584,-0.2599,-0.2574,-0.2561,-0.2561,-0.2588,-0.2658,-0.2663,-0.2717,-0.2629,-0.263,-0.2631,0,-0.2376,-0.2426,-0.2493,-0.2572,-0.259,-0.2621,-0.2672,-0.2708,-0.2741,-0.2749,-0.2754,-0.2735,-0.2734,-0.2687,-0.268,-0.2666,-0.2645,-0.2627,-0.2628,-0.2627,-0.2602,-0.2655,-0.2729,-0.2745,-0.2638,-0.2638,-0.2637,0,-0.2346,-0.2443,-0.2493,-0.252,-0.2608,-0.2632,-0.2667,-0.2713,-0.2746,-0.2776,-0.2799,-0.2797,-0.2791,-0.2767,-0.2728,-0.2703,-0.2726,-0.2685,-0.2706,-0.2709,-0.2694,-0.2694,-0.2782,-0.269,-0.269,-0.2689,-0.2689,0,-0.2355,-0.2395,-0.2477,-0.2503,-0.2556,-0.2614,-0.2661,-0.2702,-0.2757,-0.2799,-0.2812,-0.2842,-0.2807,-0.2814,-0.2769,-0.2769,-0.2762,-0.2732,-0.273,-0.2726,-0.2728,-0.2722,-0.2701,-0.2692,-0.2691,-0.2691,-0.269,0,-0.2312,-0.2373,-0.2429,-0.2516,-0.2541,-0.2566,-0.2652,-0.2684,-0.2749,-0.2805,-0.2817,-0.2876,-0.2897,-0.2883,-0.2857,-0.2832,-0.2803,-0.2815,-0.2829,-0.2827,-0.2858,-0.2839,-0.2845,-0.2778,-0.2857,-0.2858,-0.2859,0,-0.2298,-0.2321,-0.2411,-0.2431,-0.2465,-0.2518,-0.2555,-0.2652,-0.2692,-0.2823,-0.2844,-0.2911,-0.2963,-0.298,-0.2955,-0.2942,-0.2857,-0.2914,-0.2861,-0.2887,-0.2864,-0.2802,-0.2738,-0.2883,-0.2885,-0.2885,-0.2886,0,-0.2247,-0.227,-0.2305,-0.2363,-0.24,-0.2464,-0.2524,-0.2575,-0.2694,-0.2779,-0.2897,-0.2966,-0.304,-0.3074,-0.307,-0.3016,-0.289,-0.2934,-0.2948,-0.2894,-0.2842,-0.2767,-0.2831,-0.2894,-0.2894,-0.2893,-0.2893,-0.2892,-0.2173,-0.218,-0.2219,-0.2266,-0.2318,-0.2382,-0.2395,-0.2509,-0.261,-0.2741,-0.2884,-0.3032,-0.3141,-0.3166,-0.3121,-0.308,-0.2976,-0.3006,-0.2985,-0.2923,-0.285,-0.2952,-0.3016,-0.3015,-0.3015,-0.3015,-0.3015,0,-0.2071,-0.2089,-0.2122,-0.2166,-0.2181,-0.2256,-0.2344,-0.2352,-0.245,-0.2679,-0.282,-0.3136,-0.3214,-0.3261,-0.3282,-0.3184,-0.3043,-0.3072,-0.2985,-0.2913,-0.3016,-0.301,-0.3091,-0.3091,-0.3091,-0.3091,-0.3091,-0.3091,-0.2008,-0.1994,-0.2023,-0.2007,-0.2036,-0.2019,-0.2048,-0.2116,-0.2247,-0.2504,-0.2776,-0.3048,-0.3133,-0.3481,-0.3415,-0.3261,-0.3107,-0.3037,-0.2958,-0.3062,-0.3054,-0.3046,-0.3039,-0.3124,-0.3124,-0.2817,-0.2815,-0.2814]},{"header":{"parameterUnit":"m.s-1","parameterCategory":2,"la1":30.2991,"la2":30.254,"lo1":-89.0895,"lo2":-89.0444,"dy":0.0017,"dx":0.0017,"nx":28,"ny":28,"refTime":"2024-06-17T09:00:00:Z","depth":"0","parameterNumber":3,"parameterNumberName":"V-component_of_CURRENTS"},"data":[0,0,0,0,0,0,0,0,0,0,0,0,0,0,0,0,0,0,0,0,0,0,0,0,0,0,0,0,0,0,0,0,0,0,0,0,0,0,0,0,0,0,0,0,0,0,0,0,0,0,0,0,0,0,0,0,0,0,-0.0153,-0.0152,0,-0.0036,-0.0035,-0.0033,0.0028,0.0028,0.0028,0.0028,0.0108,0.011,0.0112,0,0,0,0,0,0,0,0,0,0,0,0,0,-0.0277,-0.0276,-0.0153,-0.0152,-0.015,-0.0036,-0.0035,-0.0033,0.0028,0.0028,0.0028,0.0028,0.0107,0.011,0.0112,0,0,0,0,0,0,0,0,0,0,0,0,0,-0.0199,-0.0275,-0.0154,-0.0106,-0.01,-0.0036,-0.0034,-0.0033,0.0028,0.0028,0.0028,0.0028,0.0107,0.0109,0.0112,0.0126,0,0,0.0121,0.0123,0,0,0,0,0,0,0,0,-0.0203,-0.0194,-0.0114,-0.0109,-0.0102,-0.0018,-0.0049,0.0019,0.0028,-0.0022,0.0028,0.0028,0.0063,0.0069,0.009,0.013,0.0133,0.0122,0.0124,0.0125,0.0126,0,0,0,0,0,0,0,-0.0209,-0.0199,-0.0108,-0.0113,-0.0105,-0.0073,-0.0063,-0.0035,0.0016,-0.0017,-0.0012,0.0002,0.0066,0.0087,0.0093,0.0135,0.0122,0.0124,0.0126,0.0127,0.0203,0.0203,0,0,0,0,0,0,-0.0224,-0.0204,-0.0111,-0.0104,-0.0153,-0.0072,-0.0059,-0.0046,0.0017,0.0028,0.0001,0.0004,0.0082,0.0089,0.0096,0.0127,0.0125,0.0128,0.0129,0.0203,0.0203,0.0203,0,0,0,0,0,0,-0.0228,-0.0217,-0.0116,-0.0151,-0.0136,-0.007,-0.0055,-0.0044,-0.0021,0.0032,0.0042,0.0012,0.0083,0.0091,0.0128,0.013,0.0129,0.0132,0.0202,0.0203,0.0203,0.0182,0,0,0,0,0,0,-0.0232,-0.0219,-0.0219,-0.0152,-0.0134,-0.0085,-0.0055,-0.0041,-0.0012,-0.0007,0.0045,0.0053,0.0084,0.0123,0.0131,0.0134,0.0134,0.0202,0.0202,0.0203,0.0182,0.0182,0.0181,0,0,0,0,0,-0.0236,-0.0239,-0.022,-0.0209,-0.0135,-0.0085,-0.0073,-0.0026,-0.0012,-0.0005,0.0038,0.0051,0.0131,0.0126,0.0135,0.0139,0.0202,0.0202,0.0203,0.0183,0.0182,0.0181,0,0,0,0,0,0,-0.0294,-0.0231,-0.0209,-0.0193,-0.0145,-0.0074,-0.0065,-0.0031,0.001,0.0011,0.0059,0.0071,0.0102,0.0122,0.0116,0.0161,0.0166,0.0168,0.0148,0.0147,0.0146,0.013,0.0136,0,0,0,0,0,-0.0307,-0.0292,-0.0226,-0.0214,-0.0194,-0.0131,-0.0107,-0.0073,-0.0025,-0.0006,0.0035,0.0074,0.0111,0.013,0.0162,0.0188,0.0213,0.0194,0.0194,0.0193,0.0185,0.0233,0.0236,0.0205,0.0205,0.0205,0,0,-0.0327,-0.029,-0.0282,-0.0225,-0.0187,-0.0161,-0.0116,-0.0084,-0.0058,-0.0006,0.0033,0.0071,0.0117,0.0151,0.0166,0.0169,0.0216,0.0193,0.0192,0.0185,0.0234,0.0237,0.024,0.0205,0.0205,0.0205,0,0,-0.036,-0.0326,-0.0326,-0.0288,-0.0234,-0.019,-0.0184,-0.0114,-0.0081,-0.0037,0.0007,0.0052,0.0102,0.0146,0.0172,0.0184,0.0209,0.0186,0.0172,0.0219,0.0222,0.0225,0.0264,0.0271,0.0187,0.0187,0.0187,0,-0.0389,-0.0373,-0.0319,-0.0305,-0.0278,-0.0208,-0.0198,-0.0151,-0.0077,-0.0047,-0.0034,0.0064,0.0103,0.0158,0.0164,0.0183,0.0206,0.0173,0.0218,0.0221,0.0225,0.0264,0.0272,0.0186,0.0186,0.0186,0.0186,0,-0.0416,-0.0402,-0.0399,-0.0356,-0.032,-0.0301,-0.0227,-0.019,-0.0144,-0.009,-0.0026,0.004,0.0098,0.0118,0.0145,0.0189,0.0198,0.021,0.0219,0.0227,0.0268,0.0276,0.0185,0.0185,0.0185,0.0185,0,0,-0.0483,-0.0431,-0.043,-0.042,-0.0346,-0.0322,-0.0275,-0.0209,-0.0178,-0.0103,-0.0056,0.0021,0.0063,0.0093,0.0141,0.0183,0.0234,0.0199,0.0202,0.0235,0.033,0.0396,0.0412,0.0252,0.0253,0.0254,0.0351,0,-0.0522,-0.0526,-0.0472,-0.0463,-0.046,-0.0374,-0.0335,-0.0265,-0.0195,-0.0131,-0.0043,0.0013,0.0053,0.008,0.0132,0.0212,0.0253,0.0206,0.032,0.0323,0.0379,0.0423,0.0494,0.0591,0.0359,0.036,0.0361,0,-0.0563,-0.0562,-0.057,-0.0522,-0.051,-0.0486,-0.0411,-0.0365,-0.0251,-0.0196,-0.0113,-0.0038,0.0054,0.0074,0.0216,0.0182,0.0245,0.0303,0.0309,0.0381,0.0405,0.0546,0.0615,0.0802,0.0374,0.0373,0.0372,0,-0.065,-0.0623,-0.0637,-0.0621,-0.0557,-0.0537,-0.0496,-0.0394,-0.0354,-0.0239,-0.0196,-0.0069,-0.0005,0.0097,0.0237,0.0221,0.0386,0.0385,0.0504,0.0508,0.0597,0.0609,0.0859,0.0466,0.0466,0.0466,0.0466,0,-0.0712,-0.0719,-0.0684,-0.0692,-0.07,-0.0621,-0.06,-0.0532,-0.0437,-0.0388,-0.0247,-0.0179,0.0001,0.0129,0.0234,0.0413,0.0392,0.0513,0.0546,0.0593,0.0602,0.079,0.0851,0.047,0.0469,0.0468,0.0467,0,-0.0797,-0.0773,-0.0791,-0.0754,-0.0744,-0.0752,-0.0686,-0.0667,-0.0559,-0.049,-0.0457,-0.0256,-0.0067,0.012,0.031,0.0419,0.0688,0.0627,0.0672,0.071,0.0993,0.1048,0.1299,0.1354,0.0779,0.0781,0.0783,0,-0.084,-0.0862,-0.086,-0.0882,-0.0867,-0.0861,-0.0855,-0.0752,-0.0715,-0.0536,-0.0508,-0.0294,-0.0122,0.0214,0.0464,0.0702,0.0797,0.0875,0.0864,0.1042,0.1127,0.1162,0.119,0.0973,0.0976,0.0979,0.0981,0,-0.0922,-0.092,-0.0939,-0.1,-0.1013,-0.1014,-0.0985,-0.0968,-0.0829,-0.0743,-0.0578,-0.0421,-0.0024,0.0341,0.0682,0.0803,0.103,0.0938,0.1123,0.1309,0.1364,0.1421,0.0865,0.1006,0.1003,0.1001,0.1,0.0999,-0.0978,-0.1022,-0.1059,-0.1112,-0.1138,-0.1152,-0.1158,-0.1094,-0.1029,-0.0858,-0.0659,-0.0381,0.0232,0.0757,0.0915,0.1332,0.1236,0.1437,0.1489,0.1508,0.1577,0.1073,0.125,0.1249,0.1248,0.1247,0.1246,0,-0.1047,-0.1097,-0.1165,-0.1223,-0.1281,-0.1258,-0.1234,-0.1219,-0.1153,-0.0921,-0.0715,-0.002,0.0561,0.1068,0.1715,0.1905,0.1887,0.1973,0.2052,0.2047,0.1625,0.1651,0.1923,0.1923,0.1923,0.1923,0.1922,0.1922,-0.1084,-0.1174,-0.1218,-0.1341,-0.1379,-0.1431,-0.1423,-0.1364,-0.1214,-0.0857,-0.0463,-0.0115,0.0736,0.1927,0.2489,0.2466,0.2582,0.2566,0.2594,0.2336,0.229,0.2246,0.2289,0.2691,0.2692,0.3002,0.3005,0.3008]}],[{"header":{"parameterUnit":"m.s-1","parameterCategory":2,"la1":30.2991,"la2":30.254,"lo1":-89.0895,"lo2":-89.0444,"dy":0.0017,"dx":0.0017,"nx":28,"ny":28,"refTime":"2024-06-17T09:00:00:Z","depth":"2","parameterNumber":2,"parameterNumberName":"U-component_of_CURRENTS"},"data":[0,0,0,0,0,0,0,0,0,0,0,0,0,0,0,0,0,0,0,0,0,0,0,0,0,0,0,0,0,0,0,0,0,0,0,0,0,0,0,0,0,0,0,0,0,0,0,0,0,0,0,0,0,0,0,0,0,0,-0.2251,-0.2251,0,-0.2264,-0.2264,-0.2264,-0.2241,-0.2241,-0.224,-0.224,-0.2176,-0.2175,-0.2174,0,0,0,0,0,0,0,0,0,0,0,0,0,-0.218,-0.2181,-0.2251,-0.2251,-0.2252,-0.2264,-0.2264,-0.2264,-0.2241,-0.2241,-0.224,-0.224,-0.2177,-0.2175,-0.2173,0,0,0,0,0,0,0,0,0,0,0,0,0,-0.22,-0.2181,-0.2251,-0.2245,-0.2245,-0.2264,-0.2264,-0.2264,-0.2241,-0.2241,-0.224,-0.224,-0.2177,-0.2175,-0.2173,-0.2173,0,0,-0.2167,-0.2166,0,0,0,0,0,0,0,0,-0.2199,-0.2202,-0.2245,-0.2245,-0.2245,-0.2254,-0.2216,-0.2231,-0.2242,-0.2238,-0.224,-0.2239,-0.2198,-0.2194,-0.2194,-0.217,-0.2167,-0.2167,-0.2166,-0.2165,-0.2164,0,0,0,0,0,0,0,-0.2197,-0.2201,-0.2252,-0.2246,-0.2246,-0.2233,-0.2235,-0.2219,-0.2217,-0.2239,-0.2238,-0.2246,-0.2197,-0.2196,-0.2192,-0.2166,-0.2167,-0.2165,-0.2164,-0.2163,-0.2152,-0.2152,0,0,0,0,0,0,-0.2206,-0.22,-0.2252,-0.2253,-0.2225,-0.2235,-0.2237,-0.2249,-0.2219,-0.2216,-0.2247,-0.2245,-0.2199,-0.2194,-0.2189,-0.2209,-0.2165,-0.2163,-0.2162,-0.2151,-0.2152,-0.2153,0,0,0,0,0,0,-0.2205,-0.2211,-0.2251,-0.2229,-0.2234,-0.2238,-0.225,-0.2249,-0.225,-0.2227,-0.2221,-0.225,-0.2199,-0.2192,-0.2184,-0.2205,-0.2162,-0.216,-0.215,-0.2151,-0.2152,-0.2234,0,0,0,0,0,0,-0.2203,-0.221,-0.2216,-0.223,-0.2236,-0.2272,-0.2251,-0.225,-0.2258,-0.2256,-0.2227,-0.222,-0.2198,-0.2187,-0.2182,-0.2202,-0.2159,-0.2149,-0.215,-0.2152,-0.223,-0.2238,-0.2244,0,0,0,0,0,-0.22,-0.2217,-0.2217,-0.2223,-0.2246,-0.2273,-0.2274,-0.2271,-0.2259,-0.2267,-0.2248,-0.2221,-0.2194,-0.2186,-0.218,-0.22,-0.2148,-0.215,-0.2152,-0.2227,-0.2236,-0.2244,0,0,0,0,0,0,-0.219,-0.2217,-0.2217,-0.2241,-0.2259,-0.2271,-0.2279,-0.2277,-0.2269,-0.2262,-0.2232,-0.2225,-0.2226,-0.2201,-0.2193,-0.2201,-0.2167,-0.2168,-0.2226,-0.2234,-0.2242,-0.2242,-0.2157,0,0,0,0,0,-0.2192,-0.221,-0.2234,-0.2253,-0.2263,-0.227,-0.2278,-0.2281,-0.228,-0.2276,-0.2258,-0.2238,-0.223,-0.2222,-0.2207,-0.221,-0.2198,-0.2219,-0.2226,-0.2232,-0.2229,-0.223,-0.2237,-0.2159,-0.2159,-0.2159,0,0,-0.2194,-0.2211,-0.2221,-0.2252,-0.2261,-0.2291,-0.2273,-0.2293,-0.2314,-0.2269,-0.228,-0.226,-0.2236,-0.2243,-0.2241,-0.2225,-0.2254,-0.2235,-0.224,-0.2233,-0.2233,-0.224,-0.2247,-0.2161,-0.216,-0.216,0,0,-0.2214,-0.2222,-0.2247,-0.2268,-0.2295,-0.2303,-0.2313,-0.2329,-0.233,-0.2343,-0.2318,-0.2311,-0.2296,-0.2288,-0.228,-0.2316,-0.2291,-0.2312,-0.235,-0.2353,-0.2359,-0.2364,-0.2387,-0.2394,-0.2317,-0.2317,-0.2317,0,-0.2213,-0.2251,-0.2258,-0.2293,-0.2314,-0.2314,-0.2349,-0.2358,-0.2368,-0.2373,-0.2355,-0.2345,-0.232,-0.2336,-0.2345,-0.2333,-0.2335,-0.2322,-0.2363,-0.2368,-0.2372,-0.2394,-0.24,-0.2321,-0.2321,-0.232,-0.232,0,-0.2255,-0.2288,-0.2306,-0.2349,-0.2372,-0.2401,-0.2422,-0.2436,-0.2434,-0.2439,-0.2449,-0.2421,-0.2412,-0.2411,-0.2386,-0.2408,-0.2402,-0.2373,-0.2344,-0.2385,-0.2405,-0.241,-0.2327,-0.2326,-0.2325,-0.2323,0,0,-0.2244,-0.232,-0.2326,-0.2356,-0.2403,-0.2425,-0.2466,-0.25,-0.2521,-0.2521,-0.2545,-0.253,-0.2505,-0.2494,-0.2468,-0.2467,-0.2503,-0.2434,-0.2432,-0.2462,-0.2528,-0.2558,-0.2566,-0.2482,-0.2483,-0.2484,-0.2542,0,-0.2272,-0.2343,-0.2377,-0.244,-0.2475,-0.2499,-0.2538,-0.2565,-0.2576,-0.2596,-0.2578,-0.2581,-0.2542,-0.2533,-0.2531,-0.25,-0.2515,-0.2491,-0.2478,-0.2478,-0.2503,-0.2572,-0.2331,-0.2365,-0.2546,-0.2547,-0.2548,0,-0.2294,-0.2343,-0.2409,-0.2485,-0.2503,-0.2534,-0.2585,-0.262,-0.2652,-0.2661,-0.2667,-0.2649,-0.2648,-0.2602,-0.2595,-0.2582,-0.2562,-0.2543,-0.2545,-0.2542,-0.2517,-0.2346,-0.2367,-0.2556,-0.2555,-0.2554,-0.2554,0,-0.2266,-0.236,-0.2409,-0.2435,-0.2521,-0.2545,-0.258,-0.2626,-0.2658,-0.2689,-0.2712,-0.2711,-0.2706,-0.2682,-0.2644,-0.2619,-0.2642,-0.2601,-0.2621,-0.2623,-0.2399,-0.2381,-0.2606,-0.2606,-0.2606,-0.2606,-0.2605,0,-0.2275,-0.2315,-0.2394,-0.242,-0.2473,-0.2529,-0.2576,-0.2617,-0.2671,-0.2713,-0.2727,-0.2756,-0.2722,-0.2729,-0.2684,-0.2684,-0.2678,-0.2647,-0.2644,-0.2426,-0.2411,-0.2545,-0.2537,-0.2608,-0.2607,-0.2607,-0.2606,0,-0.2233,-0.2293,-0.2348,-0.2433,-0.2458,-0.2484,-0.2569,-0.26,-0.2665,-0.272,-0.2733,-0.2791,-0.2811,-0.2798,-0.2772,-0.2746,-0.273,-0.2729,-0.2497,-0.2468,-0.2702,-0.2697,-0.2765,-0.2767,-0.2768,-0.2769,-0.277,0,-0.222,-0.2242,-0.2331,-0.2351,-0.2385,-0.2437,-0.2475,-0.2569,-0.2608,-0.2738,-0.2758,-0.2825,-0.2866,-0.2882,-0.2803,-0.2774,-0.2789,-0.2569,-0.2482,-0.273,-0.272,-0.2713,-0.2707,-0.2215,-0.2212,-0.2209,-0.2206,0,-0.2169,-0.2193,-0.2228,-0.2285,-0.2322,-0.2384,-0.2443,-0.2493,-0.261,-0.2684,-0.2799,-0.2858,-0.288,-0.2757,-0.273,-0.2657,-0.2556,-0.2516,-0.2803,-0.2241,-0.2224,-0.2211,-0.2219,-0.218,-0.2182,-0.2184,-0.2186,-0.2187,-0.2098,-0.2105,-0.2143,-0.219,-0.2242,-0.2303,-0.2315,-0.239,-0.2475,-0.2522,-0.2707,-0.2701,-0.2685,-0.2536,-0.2446,-0.2338,-0.2495,-0.2354,-0.2356,-0.2363,-0.2318,-0.2307,-0.2271,-0.2274,-0.2276,-0.2279,-0.2281,0,-0.1982,-0.2015,-0.2048,-0.2091,-0.2085,-0.2179,-0.2264,-0.2202,-0.2238,-0.2334,-0.2402,-0.222,-0.221,-0.2185,-0.2004,-0.2018,-0.1907,-0.1923,-0.1752,-0.1781,-0.1807,-0.1726,-0.1525,-0.1523,-0.1521,-0.1519,0,0,-0.1915,-0.1894,-0.1922,-0.1895,-0.1938,-0.188,-0.1906,-0.1852,-0.1852,-0.1791,-0.1804,-0.2025,-0.2127,-0.1812,-0.1755,-0.1617,-0.1661,-0.1532,-0.2134,-0.1958,-0.198,-0.2054,-0.1965,0,0,0,0,0]},{"header":{"parameterUnit":"m.s-1","parameterCategory":2,"la1":30.2991,"la2":30.254,"lo1":-89.0895,"lo2":-89.0444,"dy":0.0017,"dx":0.0017,"nx":28,"ny":28,"refTime":"2024-06-17T09:00:00:Z","depth":"2","parameterNumber":3,"parameterNumberName":"V-component_of_CURRENTS"},"data":[0,0,0,0,0,0,0,0,0,0,0,0,0,0,0,0,0,0,0,0,0,0,0,0,0,0,0,0,0,0,0,0,0,0,0,0,0,0,0,0,0,0,0,0,0,0,0,0,0,0,0,0,0,0,0,0,0,0,-0.0144,-0.0143,0,-0.0028,-0.0026,-0.0025,0.0035,0.0036,0.0036,0.0036,0.0115,0.0117,0.0119,0,0,0,0,0,0,0,0,0,0,0,0,0,-0.0267,-0.0266,-0.0144,-0.0143,-0.0141,-0.0028,-0.0026,-0.0025,0.0035,0.0036,0.0036,0.0036,0.0114,0.0116,0.0119,0,0,0,0,0,0,0,0,0,0,0,0,0,-0.0189,-0.0265,-0.0144,-0.0097,-0.0091,-0.0028,-0.0026,-0.0024,0.0035,0.0036,0.0036,0.0036,0.0113,0.0116,0.0119,0.0133,0,0,0.0128,0.0129,0,0,0,0,0,0,0,0,-0.0194,-0.0185,-0.0105,-0.01,-0.0094,-0.001,-0.004,0.0027,0.0035,-0.0013,0.0036,0.0036,0.007,0.0076,0.0097,0.0137,0.014,0.0128,0.013,0.0131,0.0132,0,0,0,0,0,0,0,-0.0199,-0.0189,-0.0099,-0.0104,-0.0097,-0.0065,-0.0054,-0.0027,0.0024,-0.0009,-0.0004,0.001,0.0073,0.0094,0.01,0.0141,0.0128,0.0131,0.0133,0.0134,0.0209,0.0209,0,0,0,0,0,0,-0.0215,-0.0195,-0.0102,-0.0095,-0.0143,-0.0063,-0.0051,-0.0037,0.0025,0.0035,0.0009,0.0012,0.0089,0.0096,0.0103,0.0134,0.0131,0.0134,0.0136,0.0208,0.0209,0.0209,0,0,0,0,0,0,-0.0218,-0.0208,-0.0107,-0.0142,-0.0127,-0.0062,-0.0046,-0.0035,-0.0013,0.004,0.0049,0.002,0.009,0.0098,0.0135,0.0136,0.0135,0.0138,0.0208,0.0209,0.0209,0.0188,0,0,0,0,0,0,-0.0222,-0.021,-0.021,-0.0143,-0.0125,-0.0076,-0.0046,-0.0033,-0.0004,0.0,0.0052,0.006,0.0091,0.013,0.0138,0.0141,0.014,0.0208,0.0208,0.0209,0.0189,0.0188,0.0187,0,0,0,0,0,-0.0227,-0.0229,-0.0211,-0.02,-0.0126,-0.0076,-0.0064,-0.0018,-0.0004,0.0003,0.0046,0.0058,0.0138,0.0133,0.0142,0.0145,0.0208,0.0208,0.0209,0.0189,0.0188,0.0187,0,0,0,0,0,0,-0.0284,-0.0221,-0.02,-0.0183,-0.0136,-0.0066,-0.0056,-0.0023,0.0018,0.0018,0.0067,0.0078,0.0108,0.0129,0.0123,0.0168,0.0172,0.0174,0.0154,0.0154,0.0153,0.0137,0.0143,0,0,0,0,0,-0.0297,-0.0282,-0.0216,-0.0204,-0.0185,-0.0122,-0.0098,-0.0065,-0.0017,0.0001,0.0043,0.0081,0.0117,0.0136,0.0168,0.0194,0.0219,0.02,0.02,0.0199,0.0192,0.0239,0.0242,0.0211,0.0211,0.0211,0,0,-0.0316,-0.028,-0.0272,-0.0215,-0.0178,-0.0151,-0.0108,-0.0075,-0.005,0.0002,0.004,0.0078,0.0123,0.0157,0.0172,0.0175,0.0222,0.0199,0.0199,0.0192,0.024,0.0243,0.0246,0.0211,0.0211,0.0211,0,0,-0.0349,-0.0316,-0.0316,-0.0278,-0.0224,-0.018,-0.0174,-0.0106,-0.0073,-0.0029,0.0015,0.0059,0.0109,0.0153,0.0178,0.019,0.0215,0.0192,0.0179,0.0225,0.0228,0.0231,0.027,0.0277,0.0193,0.0193,0.0193,0,-0.0378,-0.0362,-0.0309,-0.0294,-0.0268,-0.0198,-0.0189,-0.0142,-0.0068,-0.0039,-0.0026,0.0072,0.011,0.0165,0.017,0.0189,0.0213,0.0179,0.0224,0.0228,0.0231,0.027,0.0278,0.0192,0.0192,0.0192,0.0192,0,-0.0404,-0.039,-0.0387,-0.0345,-0.0309,-0.0291,-0.0218,-0.0181,-0.0135,-0.0081,-0.0018,0.0047,0.0105,0.0125,0.0152,0.0196,0.0204,0.0217,0.0225,0.0233,0.0274,0.0282,0.0191,0.0191,0.0191,0.0192,0,0,-0.0471,-0.0419,-0.0418,-0.0408,-0.0335,-0.0311,-0.0265,-0.0199,-0.0169,-0.0094,-0.0047,0.0029,0.0071,0.0101,0.0148,0.0191,0.0241,0.0206,0.0209,0.0241,0.0337,0.04,0.0415,0.0259,0.026,0.0261,0.0357,0,-0.051,-0.0514,-0.046,-0.0451,-0.0448,-0.0363,-0.0325,-0.0254,-0.0185,-0.0122,-0.0034,0.0021,0.0061,0.0088,0.014,0.0219,0.026,0.0213,0.0326,0.0329,0.0383,0.0426,0.0356,0.044,0.0365,0.0366,0.0367,0,-0.055,-0.0549,-0.0558,-0.051,-0.0498,-0.0474,-0.04,-0.0354,-0.0241,-0.0187,-0.0103,-0.0029,0.0063,0.0083,0.0224,0.019,0.0253,0.031,0.0316,0.0385,0.0408,0.042,0.0458,0.0381,0.038,0.0379,0.0378,0,-0.0637,-0.0609,-0.0624,-0.0608,-0.0544,-0.0525,-0.0485,-0.0383,-0.0343,-0.0229,-0.0187,-0.006,0.0004,0.0105,0.0244,0.0229,0.0393,0.0391,0.0507,0.0511,0.048,0.0481,0.0473,0.0473,0.0473,0.0472,0.0472,0,-0.0699,-0.0706,-0.067,-0.0679,-0.0687,-0.0608,-0.0588,-0.052,-0.0425,-0.0378,-0.0237,-0.017,0.0009,0.0137,0.0241,0.0417,0.0398,0.0516,0.0549,0.0473,0.0472,0.0438,0.0433,0.0476,0.0475,0.0475,0.0474,0,-0.0783,-0.0759,-0.0777,-0.074,-0.073,-0.0738,-0.0673,-0.0655,-0.0547,-0.0479,-0.0446,-0.0247,-0.006,0.0126,0.0315,0.0423,0.0573,0.0628,0.0532,0.0554,0.0654,0.0647,0.0769,0.0773,0.0775,0.0778,0.0779,0,-0.0826,-0.0848,-0.0846,-0.0868,-0.0853,-0.0848,-0.0842,-0.0739,-0.0702,-0.0526,-0.0498,-0.0286,-0.0119,0.0213,0.0431,0.0658,0.0647,0.0724,0.0694,0.0669,0.0689,0.0677,0.0666,0.0637,0.0637,0.0638,0.0638,0,-0.0907,-0.0906,-0.0925,-0.0985,-0.0998,-0.0999,-0.0971,-0.0955,-0.0817,-0.0733,-0.057,-0.0418,-0.0055,0.022,0.0545,0.0651,0.0691,0.0744,0.0749,0.0584,0.0556,0.0571,0.0562,0.0643,0.0642,0.0642,0.0642,0.0641,-0.0964,-0.1007,-0.1044,-0.1097,-0.1123,-0.1137,-0.1143,-0.1077,-0.1013,-0.0854,-0.0672,-0.0435,-0.0099,0.0346,0.058,0.0775,0.0776,0.08,0.0793,0.0787,0.0767,0.0746,0.0863,0.0864,0.0865,0.0865,0.0866,0,-0.1027,-0.1082,-0.115,-0.1207,-0.1258,-0.1242,-0.122,-0.1191,-0.1122,-0.095,-0.0768,-0.0418,-0.0055,0.0273,0.0599,0.0827,0.0768,0.0841,0.0723,0.0717,0.0713,0.0684,0.0762,0.0762,0.0763,0.0763,0,0,-0.1062,-0.1149,-0.1192,-0.1309,-0.1353,-0.1392,-0.1383,-0.131,-0.1193,-0.1029,-0.0848,-0.0543,-0.0096,0.0123,0.0419,0.0591,0.057,0.0581,0.0635,0.0451,0.0444,0.0662,0.061,0,0,0,0,0]}],[{"header":{"parameterUnit":"m.s-1","parameterCategory":2,"la1":30.2991,"la2":30.254,"lo1":-89.0895,"lo2":-89.0444,"dy":0.0017,"dx":0.0017,"nx":28,"ny":28,"refTime":"2024-06-17T09:00:00:Z","depth":"4","parameterNumber":2,"parameterNumberName":"U-component_of_CURRENTS"},"data":[0,0,0,0,0,0,0,0,0,0,0,0,0,0,0,0,0,0,0,0,0,0,0,0,0,0,0,0,0,0,0,0,0,0,0,0,0,0,0,0,0,0,0,0,0,0,0,0,0,0,0,0,0,0,0,0,0,0,-0.1314,-0.1315,0,-0.1351,-0.1351,-0.1351,-0.1376,-0.1376,-0.1377,-0.1377,-0.1399,-0.1399,-0.14,0,0,0,0,0,0,0,0,0,0,0,0,0,-0.1241,-0.1242,-0.1314,-0.1315,-0.1316,-0.1351,-0.1351,-0.1351,-0.1376,-0.1376,-0.1377,-0.1377,-0.1399,-0.1399,-0.14,0,0,0,0,0,0,0,0,0,0,0,0,0,-0.1272,-0.1242,-0.1314,-0.1334,-0.1336,-0.1351,-0.1351,-0.1352,-0.1376,-0.1376,-0.1377,-0.1378,-0.1399,-0.1399,-0.14,-0.139,0,0,-0.1401,-0.1401,0,0,0,0,0,0,0,0,-0.1271,-0.1275,-0.133,-0.1333,-0.1335,-0.1362,-0.1334,-0.1364,-0.1376,-0.1358,-0.1377,-0.1378,-0.1386,-0.1388,-0.139,-0.1391,-0.1392,-0.1401,-0.1401,-0.1401,-0.1401,0,0,0,0,0,0,0,-0.1268,-0.1273,-0.1326,-0.1331,-0.1334,-0.1333,-0.1338,-0.1339,-0.1366,-0.136,-0.1362,-0.137,-0.1387,-0.139,-0.1391,-0.1392,-0.1401,-0.1401,-0.1401,-0.1401,-0.1452,-0.1453,0,0,0,0,0,0,-0.127,-0.1271,-0.1325,-0.1328,-0.1307,-0.1334,-0.1339,-0.1351,-0.1367,-0.1371,-0.137,-0.1371,-0.1389,-0.139,-0.1392,-0.1457,-0.1401,-0.1401,-0.1401,-0.1451,-0.1452,-0.1454,0,0,0,0,0,0,-0.1268,-0.1274,-0.1324,-0.1302,-0.1309,-0.1335,-0.1347,-0.1351,-0.138,-0.1375,-0.1378,-0.1398,-0.1389,-0.1391,-0.1417,-0.1455,-0.1401,-0.1402,-0.145,-0.1451,-0.1453,-0.1538,0,0,0,0,0,0,-0.1266,-0.1273,-0.1291,-0.1302,-0.131,-0.1353,-0.1347,-0.1351,-0.1384,-0.1387,-0.14,-0.1401,-0.139,-0.1417,-0.1418,-0.1454,-0.1402,-0.1448,-0.145,-0.1452,-0.1534,-0.1543,-0.155,0,0,0,0,0,-0.1263,-0.1284,-0.1292,-0.1299,-0.133,-0.1355,-0.1359,-0.1377,-0.1385,-0.1404,-0.1413,-0.1402,-0.1431,-0.1418,-0.1419,-0.1457,-0.1447,-0.145,-0.1452,-0.153,-0.1541,-0.155,0,0,0,0,0,0,-0.1264,-0.1289,-0.1298,-0.1327,-0.1349,-0.136,-0.1382,-0.1393,-0.1415,-0.1424,-0.1415,-0.1417,-0.1453,-0.144,-0.1426,-0.1476,-0.1438,-0.1441,-0.1497,-0.1507,-0.1515,-0.1512,-0.1402,0,0,0,0,0,-0.1271,-0.1295,-0.1316,-0.1342,-0.1355,-0.1373,-0.1389,-0.1404,-0.142,-0.1432,-0.1442,-0.145,-0.1459,-0.1473,-0.1474,-0.1503,-0.1489,-0.1527,-0.1535,-0.1542,-0.154,-0.1546,-0.1555,-0.1462,-0.1462,-0.1462,0,0,-0.128,-0.1297,-0.1311,-0.1344,-0.1361,-0.1392,-0.1385,-0.142,-0.1453,-0.1429,-0.148,-0.1478,-0.1471,-0.1504,-0.1519,-0.1504,-0.1566,-0.1545,-0.1552,-0.1545,-0.155,-0.1559,-0.1567,-0.1464,-0.1464,-0.1463,0,0,-0.1301,-0.1324,-0.1349,-0.1373,-0.1409,-0.1422,-0.1439,-0.1469,-0.1492,-0.1533,-0.1524,-0.1544,-0.1566,-0.1567,-0.1569,-0.162,-0.1604,-0.1629,-0.1677,-0.1684,-0.1692,-0.1698,-0.1714,-0.1722,-0.1639,-0.1639,-0.164,0,-0.1311,-0.1347,-0.1362,-0.1394,-0.1423,-0.1441,-0.1479,-0.1503,-0.1541,-0.1562,-0.1563,-0.1598,-0.1593,-0.1626,-0.1645,-0.164,-0.1644,-0.1644,-0.1695,-0.1701,-0.1706,-0.1721,-0.1728,-0.1644,-0.1643,-0.1643,-0.1642,0,-0.1344,-0.1386,-0.1405,-0.1453,-0.1484,-0.1521,-0.1556,-0.1594,-0.1624,-0.1643,-0.1691,-0.1685,-0.1704,-0.1712,-0.1696,-0.1737,-0.1729,-0.1702,-0.1672,-0.1721,-0.1733,-0.1739,-0.165,-0.1649,-0.1647,-0.1646,0,0,-0.1327,-0.1413,-0.1422,-0.146,-0.1522,-0.1548,-0.161,-0.1663,-0.1705,-0.174,-0.1789,-0.1805,-0.1803,-0.1802,-0.1791,-0.1799,-0.1845,-0.1775,-0.1773,-0.1794,-0.1876,-0.1785,-0.1782,-0.1833,-0.1834,-0.1835,-0.1879,0,-0.135,-0.1422,-0.1462,-0.1539,-0.1577,-0.1625,-0.1681,-0.1732,-0.1772,-0.1822,-0.183,-0.1864,-0.1838,-0.1853,-0.1861,-0.1842,-0.186,-0.1836,-0.1822,-0.1822,-0.1737,-0.1785,-0.1838,-0.1883,-0.1884,-0.1885,-0.1885,0,-0.1358,-0.1411,-0.1487,-0.1586,-0.1609,-0.1659,-0.1746,-0.1798,-0.1865,-0.1899,-0.1934,-0.1939,-0.1964,-0.1928,-0.1937,-0.1927,-0.1912,-0.1895,-0.1896,-0.1778,-0.1739,-0.1817,-0.1895,-0.1894,-0.1893,-0.1893,-0.1892,0,-0.1316,-0.1425,-0.1488,-0.1521,-0.1631,-0.1681,-0.174,-0.1819,-0.1868,-0.1942,-0.1981,-0.201,-0.2029,-0.2015,-0.1986,-0.1971,-0.1988,-0.1958,-0.1866,-0.1861,-0.1892,-0.1884,-0.1966,-0.1966,-0.1966,-0.1965,-0.1965,0,-0.1303,-0.1359,-0.1479,-0.1511,-0.1595,-0.1673,-0.1756,-0.1821,-0.1906,-0.1956,-0.201,-0.204,-0.2051,-0.206,-0.2022,-0.1962,-0.202,-0.188,-0.1863,-0.193,-0.1926,-0.1897,-0.1889,-0.1967,-0.1967,-0.1966,-0.1966,0,-0.1238,-0.1321,-0.14,-0.1529,-0.1575,-0.1628,-0.1761,-0.1807,-0.1907,-0.1972,-0.1999,-0.2077,-0.2087,-0.2089,-0.2073,-0.2001,-0.1954,-0.1921,-0.2015,-0.2002,-0.1818,-0.1813,-0.1823,-0.182,-0.1817,-0.1815,-0.1813,0,-0.1209,-0.1241,-0.1388,-0.1433,-0.1496,-0.1593,-0.1652,-0.1784,-0.1827,-0.1971,-0.1982,-0.2054,-0.2082,-0.1998,-0.2006,-0.1954,-0.192,-0.1897,-0.1832,-0.1819,-0.1803,-0.1802,-0.1801,-0.181,-0.1809,-0.1808,-0.1808,0,-0.1138,-0.1197,-0.1254,-0.1353,-0.143,-0.1513,-0.1608,-0.1641,-0.1779,-0.189,-0.1923,-0.1932,-0.1952,-0.1931,-0.1914,-0.1864,-0.1907,-0.1871,-0.1875,-0.1813,-0.1803,-0.1789,-0.1791,-0.1799,-0.18,-0.1801,-0.1802,0,-0.107,-0.109,-0.1167,-0.1244,-0.1339,-0.1396,-0.1475,-0.1538,-0.1612,-0.1777,-0.1782,-0.1858,-0.1941,-0.1885,-0.186,-0.1818,-0.1778,-0.1707,-0.1718,-0.1728,-0.1671,-0.1643,-0.1581,0,0,0,0,0,-0.099,-0.0997,-0.1054,-0.1127,-0.1218,-0.1274,-0.142,-0.1498,-0.1646,-0.1631,-0.1707,-0.1719,-0.1715,-0.1751,-0.1681,-0.1795,-0.177,-0.1707,-0.1692,-0.1751,-0.1761,-0.1699,0,0,0,0,0,0,-0.0932,-0.097,-0.1002,-0.1009,-0.1031,-0.1118,-0.1209,-0.1318,-0.1328,-0.1482,-0.1486,-0.1598,-0.1608,-0.1706,-0.163,-0.164,-0.1597,-0.176,-0.1755,-0.1746,-0.1755,-0.1763,-0.1703,0,0,0,0,0]},{"header":{"parameterUnit":"m.s-1","parameterCategory":2,"la1":30.2991,"la2":30.254,"lo1":-89.0895,"lo2":-89.0444,"dy":0.0017,"dx":0.0017,"nx":28,"ny":28,"refTime":"2024-06-17T09:00:00:Z","depth":"4","parameterNumber":3,"parameterNumberName":"V-component_of_CURRENTS"},"data":[0,0,0,0,0,0,0,0,0,0,0,0,0,0,0,0,0,0,0,0,0,0,0,0,0,0,0,0,0,0,0,0,0,0,0,0,0,0,0,0,0,0,0,0,0,0,0,0,0,0,0,0,0,0,0,0,0,0,-0.0058,-0.0057,0,0.0026,0.0027,0.0028,0.0074,0.0074,0.0074,0.0074,0.0138,0.0139,0.0141,0,0,0,0,0,0,0,0,0,0,0,0,0,-0.014,-0.0139,-0.0058,-0.0057,-0.0056,0.0026,0.0027,0.0028,0.0074,0.0074,0.0074,0.0074,0.0137,0.0139,0.0141,0,0,0,0,0,0,0,0,0,0,0,0,0,-0.0086,-0.0139,-0.0059,-0.0023,-0.0019,0.0025,0.0027,0.0028,0.0074,0.0074,0.0074,0.0075,0.0137,0.0139,0.0141,0.0152,0,0,0.0148,0.0149,0,0,0,0,0,0,0,0,-0.0089,-0.0083,-0.003,-0.0026,-0.0021,0.004,0.0021,0.0068,0.0074,0.0038,0.0074,0.0075,0.0103,0.0108,0.0124,0.0155,0.0157,0.0149,0.015,0.0151,0.0152,0,0,0,0,0,0,0,-0.0093,-0.0086,-0.0025,-0.0028,-0.0023,0.0001,0.0009,0.0031,0.0068,0.0042,0.0045,0.0055,0.0105,0.0121,0.0125,0.0158,0.0149,0.0151,0.0152,0.0153,0.0213,0.0213,0,0,0,0,0,0,-0.0105,-0.009,-0.0028,-0.0023,-0.0055,0.0003,0.0011,0.002,0.0068,0.0076,0.0054,0.0056,0.0117,0.0123,0.0128,0.0153,0.0151,0.0153,0.0155,0.0213,0.0213,0.0213,0,0,0,0,0,0,-0.0107,-0.01,-0.0031,-0.0054,-0.0044,0.0003,0.0013,0.0021,0.0038,0.0078,0.0086,0.0062,0.0118,0.0124,0.0154,0.0156,0.0154,0.0156,0.0212,0.0213,0.0213,0.0198,0,0,0,0,0,0,-0.011,-0.0102,-0.0103,-0.0055,-0.0043,-0.001,0.0013,0.0023,0.0044,0.0047,0.0087,0.0094,0.0118,0.015,0.0156,0.0159,0.0158,0.0212,0.0213,0.0213,0.0198,0.0198,0.0197,0,0,0,0,0,-0.0113,-0.0115,-0.0104,-0.0096,-0.0045,-0.001,-0.0002,0.0033,0.0043,0.0048,0.0083,0.0093,0.0156,0.0153,0.016,0.0163,0.0212,0.0212,0.0213,0.0198,0.0198,0.0197,0,0,0,0,0,0,-0.0149,-0.0109,-0.0096,-0.0085,-0.0053,-0.0002,0.0004,0.0029,0.006,0.0061,0.01,0.0109,0.0133,0.015,0.0144,0.0181,0.0184,0.0186,0.017,0.017,0.017,0.0158,0.016,0,0,0,0,0,-0.0159,-0.0152,-0.0107,-0.01,-0.0088,-0.0044,-0.0027,-0.0003,0.0033,0.0048,0.008,0.0111,0.014,0.0156,0.0181,0.0202,0.0223,0.0207,0.0207,0.0206,0.0201,0.0245,0.0248,0.0214,0.0214,0.0214,0,0,-0.0172,-0.0149,-0.0145,-0.0108,-0.0082,-0.0066,-0.0033,-0.0011,0.0007,0.0048,0.0078,0.0109,0.0145,0.0173,0.0184,0.0187,0.0227,0.0207,0.0206,0.0201,0.0246,0.0249,0.0252,0.0215,0.0215,0.0215,0,0,-0.0194,-0.0173,-0.0176,-0.0152,-0.0117,-0.0087,-0.0084,-0.0035,-0.0011,0.0022,0.0058,0.0095,0.0133,0.017,0.0191,0.0201,0.0221,0.0201,0.0193,0.0235,0.0239,0.0242,0.0271,0.0276,0.0203,0.0203,0.0203,0,-0.0213,-0.0207,-0.0171,-0.0165,-0.0149,-0.0101,-0.0097,-0.0063,-0.0009,0.0014,0.0024,0.0103,0.0135,0.0181,0.0187,0.0201,0.022,0.0193,0.0235,0.0238,0.0242,0.0271,0.0277,0.0202,0.0202,0.0202,0.0202,0,-0.0233,-0.0228,-0.0228,-0.0204,-0.0181,-0.0171,-0.012,-0.0094,-0.0061,-0.002,0.003,0.0085,0.0132,0.0149,0.0172,0.0212,0.0216,0.0228,0.0236,0.0244,0.0274,0.0281,0.0201,0.0202,0.0202,0.0202,0,0,-0.0273,-0.0249,-0.025,-0.0249,-0.0202,-0.0188,-0.0156,-0.011,-0.0089,-0.003,0.0006,0.0071,0.0106,0.0131,0.0171,0.0211,0.0256,0.0224,0.0226,0.025,0.0338,0.0322,0.0328,0.0274,0.0275,0.0276,0.0349,0,-0.0302,-0.0315,-0.0282,-0.0285,-0.0287,-0.023,-0.0205,-0.0155,-0.0104,-0.0056,0.0018,0.0061,0.0098,0.012,0.0169,0.0236,0.0273,0.0234,0.0327,0.033,0.0314,0.0336,0.028,0.0354,0.0356,0.0357,0.0358,0,-0.0329,-0.0337,-0.0355,-0.0333,-0.0327,-0.0317,-0.0269,-0.0238,-0.0153,-0.0111,-0.0042,0.0018,0.0099,0.0118,0.0242,0.0213,0.0268,0.0317,0.0322,0.0315,0.0327,0.0345,0.0371,0.037,0.0369,0.0368,0.0367,0,-0.0386,-0.0381,-0.0403,-0.0396,-0.0364,-0.0357,-0.0335,-0.0263,-0.0237,-0.0148,-0.0117,-0.0007,0.0045,0.0137,0.0252,0.0245,0.0379,0.0386,0.0423,0.0423,0.0421,0.0417,0.046,0.046,0.046,0.046,0.0459,0,-0.0424,-0.044,-0.0438,-0.045,-0.0471,-0.0422,-0.0418,-0.0372,-0.0306,-0.0274,-0.0159,-0.0107,0.005,0.0154,0.0246,0.0361,0.0381,0.0424,0.0444,0.0412,0.0407,0.0426,0.0421,0.0462,0.0462,0.0461,0.0461,0,-0.0472,-0.0472,-0.0501,-0.0497,-0.0501,-0.0516,-0.0491,-0.0483,-0.0408,-0.0362,-0.0337,-0.0176,-0.0035,0.0117,0.0279,0.0348,0.0461,0.049,0.0443,0.0459,0.0474,0.0467,0.0538,0.0538,0.0538,0.0538,0.0538,0,-0.0495,-0.0519,-0.0553,-0.0583,-0.0586,-0.0602,-0.0612,-0.055,-0.0529,-0.0404,-0.0384,-0.023,-0.0116,0.0104,0.0267,0.0451,0.0468,0.0521,0.05,0.0471,0.0484,0.0477,0.0471,0.0538,0.0538,0.0538,0.0538,0,-0.0537,-0.0555,-0.0583,-0.0656,-0.0689,-0.0713,-0.0714,-0.0704,-0.0616,-0.0554,-0.0424,-0.0274,-0.0109,0.0089,0.0239,0.0368,0.0489,0.0522,0.0523,0.0504,0.0473,0.0484,0.0477,0.0539,0.0539,0.0539,0.0539,0,-0.0568,-0.0606,-0.0656,-0.0712,-0.0769,-0.0799,-0.079,-0.0747,-0.071,-0.0559,-0.052,-0.0311,-0.0174,0.0046,0.0185,0.0318,0.0342,0.0366,0.0375,0.0376,0.0311,0.0246,0.0262,0,0,0,0,0,-0.0588,-0.0638,-0.0705,-0.0767,-0.0827,-0.0851,-0.0844,-0.0814,-0.0731,-0.0662,-0.0585,-0.0428,-0.0174,-0.0042,0.0081,0.0174,0.0355,0.0322,0.0383,0.0541,0.054,0.049,0,0,0,0,0,0,-0.0605,-0.0674,-0.0712,-0.0802,-0.0851,-0.0904,-0.0902,-0.0846,-0.0785,-0.0682,-0.0547,-0.0428,-0.0184,-0.0264,0.007,0.012,0.0169,0.0459,0.0461,0.0541,0.0541,0.054,0.0488,0,0,0,0,0]}]]